Chisinau current weather conditions

sailwx.info

Wind from 350 at 13 knots

Air temperature -0.0° C
Visibility: greater than 5.4 NM
Dewpoint -4.0° C

Last reported at 2019-Jan-16 15:00 UTC.
Time now 2019-Jan-16 16:01 UTC

Location: N 46°56' E 028°56'.
View on Google Maps.

See reports from other nearby stations

  
Tides and Currents Weather Stations Pressure Air Temp Water Temp Dewpoint Dewpoint Depression Visibility Wind Speed Wind Dir Waves Ship Positions
date/time (UTC)wind fromknots sea level pressurealtimeterstation pressurevisibilityair tempwater tempwave heightnotes
2019-Jan-16 15:00 350 13 5.4-0.0
2019-Jan-16 14:30 360 13 5.4 1.0
2019-Jan-16 14:00 010 20 5.4 2.0
2019-Jan-16 13:30 360 18 5.4 3.0
2019-Jan-16 13:00 350 18 5.4 4.0
2019-Jan-16 12:30 340 17 gusting 28 5.4 4.0
2019-Jan-16 12:00 320 15 5.4 3.0 Light drizzle snow.
2019-Jan-16 11:30 290 19 5.4 2.0
2019-Jan-16 11:00 290 20 5.4 2.0
2019-Jan-16 10:30 290 22 5.4 2.0
2019-Jan-16 10:00 280 18 5.4 1.0
2019-Jan-16 09:30 270 18 5.4-0.0
2019-Jan-16 09:00 270 19 5.4-1.0
2019-Jan-16 08:30 260 20 5.4-1.0
2019-Jan-16 08:00 260 14 5.4-2.0
2019-Jan-16 07:30 250 13 5.4-3.0 Light snow.
2019-Jan-16 07:00 250 14 3.2-3.0 Light snow.
2019-Jan-16 06:30 260 12 4.3-4.0 Light snow.
2019-Jan-16 06:00 250 14 5.4-4.0
2019-Jan-16 05:30 260 15 5.4-4.0
2019-Jan-16 05:00 250 6 5.4-5.0
2019-Jan-16 04:30 230 5 5.4-6.0
2019-Jan-16 04:00 5.4-6.0
2019-Jan-16 03:30 260 7 5.4-6.0
2019-Jan-16 03:00 240 8 5.4-6.0
2019-Jan-16 02:30 220 6 5.4-7.0
2019-Jan-16 02:00 200 6 5.4-8.0
2019-Jan-16 01:30 5.4-9.0
2019-Jan-16 01:00 220 2 5.4-9.0
2019-Jan-16 00:30 5.4-8.0
2019-Jan-16 00:00 260 2 5.4-8.0
2019-Jan-15 23:30 260 6 5.4-7.0
2019-Jan-15 23:00 250 6 5.4-8.0
2019-Jan-15 22:30 260 6 5.4-8.0
2019-Jan-15 22:00 240 6 5.4-6.0
2019-Jan-15 21:30 250 5 5.4-7.0
2019-Jan-15 21:00 270 7 5.4-6.0
2019-Jan-15 20:30 280 4 5.4-6.0
2019-Jan-15 20:00 300 6 5.4-7.0
2019-Jan-15 19:30 310 6 5.4-5.0
2019-Jan-15 19:00 330 5 5.4-5.0
2019-Jan-15 18:30 320 6 5.4-5.0
2019-Jan-15 18:00 300 6 5.4-4.0
2019-Jan-15 17:30 280 6 5.4-5.0
2019-Jan-15 17:00 290 7 5.4-3.0
2019-Jan-15 16:30 300 7 5.4-4.0
2019-Jan-15 16:00 310 7 5.4-3.0
2019-Jan-15 15:30 300 6 5.4-3.0
2019-Jan-15 15:00 310 6 5.4-2.0
2019-Jan-15 14:30 320 5 5.4-6.0
2019-Jan-15 14:00 330 6 5.4-0.0
2019-Jan-15 13:30 340 6 5.4-0.0
2019-Jan-15 13:00 340 7 5.4-0.0
2019-Jan-15 12:30 350 11 5.4-0.0
2019-Jan-15 12:00 340 13 5.4 1.0
2019-Jan-15 11:30 340 13 5.4 1.0
2019-Jan-15 11:00 350 12 5.4 1.0
2019-Jan-15 10:30 340 11 5.4-0.0
2019-Jan-15 10:00 340 7 5.4-0.0
2019-Jan-15 09:30 350 8 5.4-1.0
2019-Jan-15 09:00 350 8 5.4-1.0
2019-Jan-15 08:30 360 6 5.4-1.0
2019-Jan-15 08:00 5.4-1.0
2019-Jan-15 07:30 010 4 5.4-2.0
2019-Jan-15 07:00 360 7 5.4-1.0
2019-Jan-15 06:30 360 7 5.4-1.0
2019-Jan-15 06:00 350 8 5.4-1.0
2019-Jan-15 05:30 320 12 5.4-1.0
2019-Jan-15 05:00 330 12 5.4-0.0
2019-Jan-15 04:30 340 11 5.4-0.0
2019-Jan-15 04:00 330 9 5.4-0.0
2019-Jan-15 03:30 320 8 5.4 1.0
2019-Jan-15 03:00 320 9 5.4 1.0 Light snow.
2019-Jan-15 02:30 330 13 5.4 1.0 Light snow.
2019-Jan-15 02:00 330 12 5.4 1.0 Light snow.
2019-Jan-15 01:30 310 8 5.4 1.0
2019-Jan-15 01:00 310 9 5.4 1.0
2019-Jan-15 00:30 320 8 3.8-0.0 Light snow.
2019-Jan-15 00:00 310 6 3.2-0.0
2019-Jan-14 23:30 310 6 2.2-2.0 Light snow. Mist.
2019-Jan-14 23:00 280 5 1.7-1.0 Light snow. Mist.
2019-Jan-14 22:30 2.3-2.0 Mist.
2019-Jan-14 22:00 310 2 2.5-1.0 Light snow. Mist.
2019-Jan-14 21:30 270 4 2.7-1.0 Light snow. Mist.
2019-Jan-14 21:00 270 7 3.2-1.0 Light snow.
2019-Jan-14 20:30 250 2 2.7-1.0 Mist.
2019-Jan-14 20:00 250 6 2.3-1.0 Light snow. Mist.
2019-Jan-14 19:30 250 5 2.2-1.0 Mist.
2019-Jan-14 19:00 220 2 2.2-1.0 Mist.
2019-Jan-14 18:30 270 2 2.6-1.0 Mist.
2019-Jan-14 18:00 290 2 2.4-1.0 Mist.
2019-Jan-14 17:30 280 2 2.7-1.0 Mist.
2019-Jan-14 17:00 270 6 2.5-1.0 Mist.
2019-Jan-14 16:30 240 6 2.5-1.0 Mist.
2019-Jan-14 16:00 270 5 2.5-1.0 Mist.